| time (UTC) | temp F | wind direction | speed MPH | gust MPH | rain 1hr in | rain 24hr in | rain mn in | humidity % | barometer mb |
| 20260504215004 | 59 | 331 | 1.0 | 4.0 | 0.00 | 0.00 | 0.00 | 39 | 1018.4 |
| 20260504214503 | 59 | 0 | 0.0 | 4.0 | 0.00 | 0.00 | 0.00 | 39 | 1018.4 |
| 20260504214003 | 59 | 0 | 0.0 | 5.0 | 0.00 | 0.00 | 0.00 | 39 | 1018.4 |
| 20260504213504 | 59 | 82 | 2.0 | 5.0 | 0.00 | 0.00 | 0.00 | 39 | 1018.4 |
| 20260504213003 | 60 | 0 | 0.0 | 4.0 | 0.00 | 0.00 | 0.00 | 39 | 1018.3 |
| 20260504212503 | 60 | 221 | 1.0 | 4.0 | 0.00 | 0.00 | 0.00 | 39 | 1018.4 |
| 20260504212003 | 60 | 225 | 1.0 | 4.0 | 0.00 | 0.00 | 0.00 | 39 | 1018.3 |
| 20260504211504 | 60 | 225 | 1.0 | 4.0 | 0.00 | 0.00 | 0.00 | 39 | 1018.2 |
| 20260504211003 | 60 | 0 | 0.0 | 3.0 | 0.00 | 0.00 | 0.00 | 39 | 1018.2 |
| 20260504210503 | 60 | 199 | 1.0 | 3.0 | 0.00 | 0.00 | 0.00 | 39 | 1018.2 |
| 20260504210004 | 60 | 99 | 2.0 | 4.0 | 0.00 | 0.00 | 0.00 | 39 | 1018.2 |
| 20260504205504 | 60 | 287 | 1.0 | 4.0 | 0.00 | 0.00 | 0.00 | 39 | 1018.2 |
| 20260504205003 | 60 | 268 | 1.0 | 4.0 | 0.00 | 0.00 | 0.00 | 39 | 1018.2 |
| 20260504204503 | 60 | 0 | 0.0 | 3.0 | 0.00 | 0.00 | 0.00 | 38 | 1018.2 |
| 20260504204003 | 60 | 0 | 0.0 | 3.0 | 0.00 | 0.00 | 0.00 | 38 | 1018.2 |
| 20260504203504 | 60 | 0 | 0.0 | 4.0 | 0.00 | 0.00 | 0.00 | 38 | 1017.9 |
| 20260504203003 | 60 | 0 | 0.0 | 4.0 | 0.00 | 0.00 | 0.00 | 38 | 1018.1 |
| 20260504202503 | 60 | 0 | 0.0 | 3.0 | 0.00 | 0.00 | 0.00 | 38 | 1018.1 |
| 20260504202004 | 61 | 0 | 0.0 | 5.0 | 0.00 | 0.00 | 0.00 | 38 | 1018.2 |
| 20260504201504 | 61 | 237 | 1.0 | 5.0 | 0.00 | 0.00 | 0.00 | 37 | 1018.2 |
| 20260504201003 | 61 | 0 | 0.0 | 2.0 | 0.00 | 0.00 | 0.00 | 37 | 1018.3 |
| 20260504200503 | 61 | 0 | 0.0 | 2.0 | 0.00 | 0.00 | 0.00 | 37 | 1018.4 |
| 20260504200003 | 61 | 225 | 1.0 | 3.0 | 0.00 | 0.00 | 0.00 | 37 | 1018.4 |
| 20260504195504 | 61 | 225 | 1.0 | 3.0 | 0.00 | 0.00 | 0.00 | 37 | 1018.4 |
| 20260504195003 | 61 | 0 | 0.0 | 3.0 | 0.00 | 0.00 | 0.00 | 36 | 1018.3 |
| 20260504194503 | 62 | 342 | 1.0 | 4.0 | 0.00 | 0.00 | 0.00 | 36 | 1018.3 |
| 20260504194003 | 62 | 0 | 0.0 | 5.0 | 0.00 | 0.00 | 0.00 | 36 | 1018.2 |
| 20260504193504 | 62 | 38 | 1.0 | 5.0 | 0.00 | 0.00 | 0.00 | 36 | 1018.3 |
| 20260504193004 | 62 | 0 | 0.0 | 4.0 | 0.00 | 0.00 | 0.00 | 35 | 1018.2 |
| 20260504192504 | 62 | 0 | 0.0 | 4.0 | 0.00 | 0.00 | 0.00 | 35 | 1018.2 |
| 20260504192003 | 62 | 0 | 0.0 | 4.0 | 0.00 | 0.00 | 0.00 | 35 | 1018.2 |
| 20260504191503 | 62 | 0 | 0.0 | 3.0 | 0.00 | 0.00 | 0.00 | 34 | 1018.2 |
| 20260504191003 | 63 | 225 | 1.0 | 3.0 | 0.00 | 0.00 | 0.00 | 34 | 1018.3 |
| 20260504190504 | 63 | 0 | 0.0 | 4.0 | 0.00 | 0.00 | 0.00 | 34 | 1018.2 |
| 20260504190004 | 63 | 0 | 0.0 | 4.0 | 0.00 | 0.00 | 0.00 | 34 | 1018.2 |
| 20260504185503 | 63 | 0 | 0.0 | 2.0 | 0.00 | 0.00 | 0.00 | 33 | 1018.2 |
| 20260504185003 | 64 | 0 | 0.0 | 3.0 | 0.00 | 0.00 | 0.00 | 33 | 1018.2 |
| 20260504184503 | 64 | 225 | 1.0 | 3.0 | 0.00 | 0.00 | 0.00 | 33 | 1018.1 |
| 20260504184004 | 64 | 225 | 1.0 | 3.0 | 0.00 | 0.00 | 0.00 | 32 | 1018.0 |
| 20260504183503 | 64 | 225 | 1.0 | 3.0 | 0.00 | 0.00 | 0.00 | 32 | 1017.9 |
| 20260504183003 | 65 | 0 | 0.0 | 4.0 | 0.00 | 0.00 | 0.00 | 32 | 1017.9 |
| 20260504182503 | 65 | 0 | 0.0 | 4.0 | 0.00 | 0.00 | 0.00 | 31 | 1017.8 |
| 20260504182004 | 65 | 0 | 0.0 | 3.0 | 0.00 | 0.00 | 0.00 | 30 | 1017.8 |
| 20260504181503 | 66 | 0 | 0.0 | 3.0 | 0.00 | 0.00 | 0.00 | 29 | 1017.7 |
| 20260504181003 | 66 | 0 | 0.0 | 2.0 | 0.00 | 0.00 | 0.00 | 28 | 1017.7 |
| 20260504180504 | 66 | 0 | 0.0 | 3.0 | 0.00 | 0.00 | 0.00 | 27 | 1017.7 |
| 20260504180004 | 66 | 0 | 0.0 | 3.0 | 0.00 | 0.00 | 0.00 | 27 | 1017.6 |
| 20260504175503 | 66 | 67 | 1.0 | 3.0 | 0.00 | 0.00 | 0.00 | 27 | 1017.6 |
| 20260504175003 | 66 | 0 | 0.0 | 2.0 | 0.00 | 0.00 | 0.00 | 26 | 1017.6 |
| 20260504174504 | 66 | 0 | 0.0 | 2.0 | 0.00 | 0.00 | 0.00 | 26 | 1017.6 |
| 20260504174003 | 66 | 0 | 0.0 | 2.0 | 0.00 | 0.00 | 0.00 | 26 | 1017.7 |
| 20260504173503 | 66 | 0 | 0.0 | 2.0 | 0.00 | 0.00 | 0.00 | 26 | 1017.6 |
| 20260504173003 | 67 | 0 | 0.0 | 2.0 | 0.00 | 0.00 | 0.00 | 26 | 1017.6 |
| 20260504172504 | 67 | 121 | 1.0 | 2.0 | 0.00 | 0.00 | 0.00 | 26 | 1017.5 |
| 20260504172004 | 67 | 0 | 0.0 | 4.0 | 0.00 | 0.00 | 0.00 | 26 | 1017.6 |
| 20260504171503 | 67 | 0 | 0.0 | 4.0 | 0.00 | 0.00 | 0.00 | 27 | 1017.5 |
| 20260504171003 | 67 | 139 | 1.0 | 3.0 | 0.00 | 0.00 | 0.00 | 28 | 1017.7 |
| 20260504170503 | 67 | 0 | 0.0 | 4.0 | 0.00 | 0.00 | 0.00 | 27 | 1017.6 |